REU105 FIMP-FMEE

Flight info

Callsign REU105
Flight time 0h 29m
Altitude 20000
Route SOBAT2A SOBAT SOBAT2R
Aircraft B77W/H-SDE1E2E3FGHIJ2J3J4J5M1RWXY/LB1D1

Departure

Time 2026-04-23 00:03
Airport Sir Seewoosagur Ramgoolam International Airport (FIMP)

Arrival

Time 2026-04-23 00:32
Airport Roland Garros Airport (FMEE)
Time Latitude Longitude Altitude Speed Heading
2026-04-22 23:46 -20.43257 57.67958 191 ft 0 kts 237°
2026-04-22 23:53 -20.43257 57.67959 191 ft 0 kts 237°
2026-04-22 23:53 -20.43255 57.67962 191 ft 2 kts 236°
2026-04-22 23:53 -20.43246 57.67975 191 ft 2 kts 234°
2026-04-22 23:54 -20.43237 57.67989 190 ft 2 kts 234°
2026-04-22 23:54 -20.43228 57.68002 190 ft 2 kts 235°
2026-04-22 23:54 -20.43220 57.68015 189 ft 2 kts 234°
2026-04-22 23:54 -20.43211 57.68028 188 ft 2 kts 243°
2026-04-22 23:55 -20.43210 57.68042 188 ft 2 kts 304°
2026-04-22 23:55 -20.43218 57.68050 188 ft 1 kts 329°
2026-04-22 23:55 -20.43220 57.68051 188 ft 0 kts 328°
2026-04-22 23:58 -20.43202 57.68038 188 ft 6 kts 323°
2026-04-22 23:58 -20.43168 57.68010 189 ft 5 kts 318°
2026-04-22 23:58 -20.43158 57.68000 189 ft 6 kts 314°
2026-04-22 23:59 -20.43126 57.67963 191 ft 10 kts 311°
2026-04-22 23:59 -20.43076 57.67883 194 ft 11 kts 302°
2026-04-22 23:59 -20.43044 57.67816 197 ft 8 kts 295°
2026-04-22 23:59 -20.43011 57.67741 200 ft 13 kts 295°
2026-04-23 00:00 -20.42866 57.67588 201 ft 14 kts 325°
2026-04-23 00:00 -20.42786 57.67529 201 ft 13 kts 324°
2026-04-23 00:00 -20.42680 57.67472 201 ft 21 kts 341°
2026-04-23 00:01 -20.42561 57.67392 202 ft 19 kts 301°
2026-04-23 00:01 -20.42501 57.67276 205 ft 16 kts 297°
2026-04-23 00:01 -20.42449 57.67168 208 ft 20 kts 292°
2026-04-23 00:01 -20.42431 57.67033 214 ft 16 kts 272°
2026-04-23 00:02 -20.42395 57.66956 218 ft 10 kts
2026-04-23 00:02 -20.42372 57.66989 216 ft 6 kts 104°
2026-04-23 00:02 -20.42398 57.67056 213 ft 18 kts 116°
2026-04-23 00:02 -20.42518 57.67305 204 ft 69 kts 117°
2026-04-23 00:03 -20.42852 57.68001 187 ft 138 kts 117°
2026-04-23 00:03 -20.43375 57.69102 373 ft 176 kts 116°
2026-04-23 00:03 -20.43913 57.70231 1232 ft 173 kts 115°
2026-04-23 00:03 -20.44475 57.71403 1769 ft 185 kts 115°
2026-04-23 00:04 -20.45081 57.72671 2247 ft 201 kts 116°
2026-04-23 00:04 -20.46038 57.73860 2719 ft 222 kts 141°
2026-04-23 00:04 -20.47533 57.74569 3240 ft 245 kts 165°
2026-04-23 00:04 -20.49317 57.74513 3753 ft 269 kts 193°
2026-04-23 00:05 -20.50958 57.73497 4471 ft 283 kts 223°
2026-04-23 00:05 -20.51982 57.71662 5253 ft 291 kts 254°
2026-04-23 00:05 -20.52365 57.69562 6099 ft 292 kts 261°
2026-04-23 00:05 -20.52670 57.67423 6904 ft 294 kts 261°
2026-04-23 00:06 -20.52976 57.65243 7704 ft 297 kts 261°
2026-04-23 00:06 -20.53282 57.63059 8456 ft 300 kts 261°
2026-04-23 00:06 -20.53590 57.60858 9210 ft 303 kts 261°
2026-04-23 00:06 -20.53910 57.58568 9937 ft 308 kts 261°
2026-04-23 00:07 -20.54229 57.56280 10517 ft 318 kts 261°
2026-04-23 00:07 -20.54565 57.53872 10907 ft 336 kts 261°
2026-04-23 00:07 -20.54919 57.51332 11342 ft 353 kts 261°
2026-04-23 00:07 -20.55289 57.48673 11818 ft 369 kts 261°
2026-04-23 00:08 -20.55671 57.45925 12498 ft 379 kts 261°
2026-04-23 00:08 -20.56057 57.43144 13447 ft 381 kts 261°
2026-04-23 00:08 -20.56448 57.40323 14419 ft 385 kts 261°
2026-04-23 00:08 -20.56841 57.37487 15360 ft 392 kts 261°
2026-04-23 00:09 -20.57243 57.34581 16320 ft 398 kts 262°
2026-04-23 00:09 -20.57650 57.31636 17234 ft 404 kts 262°
2026-04-23 00:09 -20.58062 57.28647 18116 ft 411 kts 262°
2026-04-23 00:09 -20.58485 57.25581 19037 ft 416 kts 262°
2026-04-23 00:10 -20.58907 57.22510 19759 ft 418 kts 262°
2026-04-23 00:10 -20.59336 57.19390 19972 ft 420 kts 262°
2026-04-23 00:10 -20.59754 57.16345 19991 ft 416 kts 262°
2026-04-23 00:10 -20.60176 57.13264 19992 ft 415 kts 262°
2026-04-23 00:11 -20.60595 57.10202 19993 ft 416 kts 262°
2026-04-23 00:11 -20.61017 57.07114 19991 ft 414 kts 262°
2026-04-23 00:11 -20.61436 57.04044 19992 ft 416 kts 262°
2026-04-23 00:11 -20.61851 57.01000 19993 ft 415 kts 262°
2026-04-23 00:12 -20.62265 56.97962 19994 ft 415 kts 262°
2026-04-23 00:12 -20.62687 56.94857 19994 ft 416 kts 262°
2026-04-23 00:12 -20.63106 56.91767 19994 ft 416 kts 262°
2026-04-23 00:12 -20.63521 56.88708 19995 ft 417 kts 262°
2026-04-23 00:13 -20.63938 56.85630 19994 ft 416 kts 262°
2026-04-23 00:13 -20.64353 56.82556 19997 ft 418 kts 262°
2026-04-23 00:13 -20.64772 56.79457 19996 ft 417 kts 262°
2026-04-23 00:13 -20.65189 56.76368 19997 ft 417 kts 262°
2026-04-23 00:14 -20.65605 56.73272 19998 ft 416 kts 262°
2026-04-23 00:14 -20.66016 56.70215 19999 ft 418 kts 261°
2026-04-23 00:14 -20.66432 56.67121 19998 ft 417 kts 261°
2026-04-23 00:14 -20.66842 56.64062 19997 ft 416 kts 261°
2026-04-23 00:15 -20.67259 56.60946 19999 ft 418 kts 261°
2026-04-23 00:15 -20.67673 56.57854 20000 ft 419 kts 261°
2026-04-23 00:15 -20.68086 56.54762 20001 ft 418 kts 261°
2026-04-23 00:15 -20.68494 56.51697 20001 ft 418 kts 261°
2026-04-23 00:16 -20.68905 56.48616 20001 ft 418 kts 261°
2026-04-23 00:16 -20.69318 56.45509 20003 ft 419 kts 261°
2026-04-23 00:16 -20.69729 56.42413 20003 ft 418 kts 261°
2026-04-23 00:16 -20.70139 56.39320 20003 ft 417 kts 261°
2026-04-23 00:17 -20.70543 56.36276 20005 ft 419 kts 261°
2026-04-23 00:17 -20.70957 56.33144 20001 ft 418 kts 262°
2026-04-23 00:17 -20.71365 56.30053 20003 ft 420 kts 262°
2026-04-23 00:17 -20.71738 56.26940 19998 ft 419 kts 266°
2026-04-23 00:18 -20.71767 56.23792 20001 ft 421 kts 271°
2026-04-23 00:18 -20.71698 56.20623 20000 ft 421 kts 271°
2026-04-23 00:18 -20.71625 56.17523 19999 ft 420 kts 271°
2026-04-23 00:18 -20.71550 56.14388 20000 ft 421 kts 271°
2026-04-23 00:19 -20.71474 56.11227 19999 ft 420 kts 271°
2026-04-23 00:19 -20.71398 56.08100 19999 ft 419 kts 271°
2026-04-23 00:19 -20.71322 56.04984 19936 ft 414 kts 271°
2026-04-23 00:19 -20.71248 56.01946 19284 ft 417 kts 271°
2026-04-23 00:20 -20.71170 55.98769 18231 ft 429 kts 271°
2026-04-23 00:20 -20.71089 55.95525 17054 ft 443 kts 272°
2026-04-23 00:20 -20.71007 55.92239 16098 ft 448 kts 272°
2026-04-23 00:20 -20.70923 55.88912 15589 ft 441 kts 272°
2026-04-23 00:21 -20.70841 55.85685 15170 ft 432 kts 272°
2026-04-23 00:21 -20.70759 55.82475 14655 ft 427 kts 272°
2026-04-23 00:21 -20.70678 55.79332 14009 ft 423 kts 272°
2026-04-23 00:21 -20.70597 55.76222 13296 ft 419 kts 272°
2026-04-23 00:22 -20.70515 55.73096 12566 ft 415 kts 272°
2026-04-23 00:22 -20.70433 55.69991 12094 ft 405 kts 272°
2026-04-23 00:22 -20.70355 55.67013 11771 ft 392 kts 272°
2026-04-23 00:22 -20.70277 55.64098 10838 ft 398 kts 272°
2026-04-23 00:23 -20.70173 55.61102 9913 ft 402 kts 272°
2026-04-23 00:23 -20.70060 55.58146 9398 ft 391 kts 272°
2026-04-23 00:23 -20.69951 55.55274 9097 ft 377 kts 272°
2026-04-23 00:23 -20.69845 55.52486 8661 ft 372 kts 272°
2026-04-23 00:24 -20.69738 55.49689 8186 ft 368 kts 272°
2026-04-23 00:24 -20.69637 55.47033 7992 ft 356 kts 272°
2026-04-23 00:24 -20.69535 55.44350 7919 ft 341 kts 272°
2026-04-23 00:24 -20.69440 55.41884 7888 ft 325 kts 272°
2026-04-23 00:25 -20.69350 55.39535 7884 ft 310 kts 272°
2026-04-23 00:25 -20.69261 55.37237 7878 ft 295 kts 272°
2026-04-23 00:25 -20.69178 55.35088 7775 ft 284 kts 272°
2026-04-23 00:25 -20.69116 55.32963 7371 ft 282 kts 267°
2026-04-23 00:26 -20.69621 55.30981 6882 ft 282 kts 239°
2026-04-23 00:26 -20.70935 55.29476 6599 ft 270 kts 210°
2026-04-23 00:26 -20.72660 55.28737 6292 ft 261 kts 191°
2026-04-23 00:26 -20.74459 55.28378 5916 ft 260 kts 187°
2026-04-23 00:27 -20.76259 55.28267 5502 ft 257 kts 168°
2026-04-23 00:27 -20.77905 55.28989 5086 ft 250 kts 139°
2026-04-23 00:27 -20.78990 55.30358 4389 ft 243 kts 117°
2026-04-23 00:27 -20.79763 55.31974 3727 ft 239 kts 114°
2026-04-23 00:28 -20.80493 55.33567 3455 ft 228 kts 114°
2026-04-23 00:28 -20.81173 55.35046 3183 ft 208 kts 115°
2026-04-23 00:28 -20.81790 55.36370 2937 ft 191 kts 115°
2026-04-23 00:28 -20.82352 55.37561 2718 ft 166 kts 115°
2026-04-23 00:29 -20.82874 55.38663 2510 ft 157 kts 116°
2026-04-23 00:29 -20.83359 55.39685 2311 ft 151 kts 116°
2026-04-23 00:29 -20.83825 55.40671 2114 ft 146 kts 115°
2026-04-23 00:29 -20.84289 55.41654 1917 ft 147 kts 114°
2026-04-23 00:30 -20.84755 55.42644 1715 ft 149 kts 112°
2026-04-23 00:30 -20.85241 55.43681 1514 ft 155 kts 114°
2026-04-23 00:30 -20.85725 55.44704 1307 ft 151 kts 114°
2026-04-23 00:30 -20.86198 55.45709 1101 ft 151 kts 115°
2026-04-23 00:31 -20.86677 55.46723 899 ft 151 kts 116°
2026-04-23 00:31 -20.87140 55.47706 703 ft 146 kts 115°
2026-04-23 00:31 -20.87607 55.48671 512 ft 144 kts 116°
2026-04-23 00:31 -20.88050 55.49618 312 ft 142 kts 116°
2026-04-23 00:32 -20.88494 55.50571 135 ft 141 kts 116°
2026-04-23 00:32 -20.88894 55.51424 113 ft 102 kts 117°
2026-04-23 00:32 -20.89108 55.51880 112 ft 39 kts 116°
2026-04-23 00:32 -20.89219 55.52123 112 ft 28 kts 116°
2026-04-23 00:33 -20.89325 55.52206 112 ft 17 kts 188°
2026-04-23 00:33 -20.89408 55.52137 113 ft 13 kts 268°
2026-04-23 00:33 -20.89365 55.52032 113 ft 20 kts 298°
2026-04-23 00:33 -20.89293 55.51885 113 ft 22 kts 297°
2026-04-23 00:34 -20.89225 55.51743 113 ft 20 kts 296°
2026-04-23 00:34 -20.89164 55.51606 113 ft 19 kts 295°
2026-04-23 00:34 -20.89107 55.51478 113 ft 18 kts 296°
2026-04-23 00:34 -20.89052 55.51361 113 ft 14 kts 297°
2026-04-23 00:35 -20.89023 55.51300 113 ft 8 kts 297°
2026-04-23 00:35 -20.89016 55.51271 113 ft 2 kts 244°
2026-04-23 00:35 -20.89055 55.51245 113 ft 4 kts 206°
2026-04-23 00:35 -20.89071 55.51237 113 ft 0 kts 207°